| time (UTC) | temp F | wind direction | speed MPH | gust MPH | rain 1hr in | rain 24hr in | rain mn in | humidity % | barometer mb |
| 20260904131737 | 82 | 176 | 2.0 | 5.0 | 0.00 | 0.00 | 0.00 | 71 | 1016.4 |
| 20260904131236 | 82 | 174 | 2.0 | 4.0 | 0.00 | 0.00 | 0.00 | 71 | 1016.3 |
| 20260904130235 | 81 | 188 | 3.0 | 5.0 | 0.00 | 0.00 | 0.00 | 72 | 1016.4 |
| 20260904125731 | 81 | 150 | 3.0 | 4.0 | 0.00 | 0.00 | 0.00 | 74 | 1016.4 |
| 20260904125231 | 80 | 201 | 2.0 | 3.0 | 0.00 | 0.00 | 0.00 | 76 | 1016.5 |
| 20260904124229 | 80 | 180 | 0.0 | 1.0 | 0.00 | 0.00 | 0.00 | 78 | 1016.4 |
| 20260904123729 | 79 | 186 | 0.0 | 0.0 | 0.00 | 0.00 | 0.00 | 79 | 1016.4 |
| 20260904123228 | 79 | 186 | 0.0 | 0.0 | 0.00 | 0.00 | 0.00 | 80 | 1016.4 |
| 20260904122727 | 79 | 186 | 0.0 | 0.0 | 0.00 | 0.00 | 0.00 | 81 | 1016.3 |
| 20260904122227 | 79 | 186 | 0.0 | 1.0 | 0.00 | 0.00 | 0.00 | 81 | 1016.2 |
| 20260904121726 | 78 | 186 | 1.0 | 2.0 | 0.00 | 0.00 | 0.00 | 82 | 1016.3 |
| 20260904120725 | 78 | 93 | 0.0 | 0.0 | 0.00 | 0.00 | 0.00 | 84 | 1016.1 |
| 20260904120225 | 77 | 93 | 0.0 | 0.0 | 0.00 | 0.00 | 0.00 | 85 | 1016.2 |
| 20260904115724 | 77 | 93 | 0.0 | 0.0 | 0.00 | 0.00 | 0.00 | 85 | 1016.1 |
| 20260904115224 | 76 | 93 | 0.0 | 0.0 | 0.00 | 0.00 | 0.00 | 86 | 1016.0 |
| 20260904114223 | 76 | 93 | 0.0 | 0.0 | 0.00 | 0.00 | 0.00 | 86 | 1015.8 |
| 20260904113722 | 76 | 93 | 0.0 | 0.0 | 0.00 | 0.00 | 0.00 | 86 | 1015.8 |
| 20260904113221 | 76 | 93 | 0.0 | 0.0 | 0.00 | 0.00 | 0.00 | 86 | 1015.8 |
| 20260904112720 | 76 | 93 | 0.0 | 0.0 | 0.00 | 0.00 | 0.00 | 86 | 1015.7 |
| 20260904112220 | 76 | 93 | 0.0 | 0.0 | 0.00 | 0.00 | 0.00 | 86 | 1015.6 |
| 20260904111719 | 76 | 93 | 0.0 | 0.0 | 0.00 | 0.00 | 0.00 | 85 | 1015.6 |
| 20260904111219 | 76 | 93 | 0.0 | 0.0 | 0.00 | 0.00 | 0.00 | 85 | 1015.6 |
| 20260904110717 | 76 | 93 | 0.0 | 0.0 | 0.00 | 0.00 | 0.00 | 85 | 1015.5 |
| 20260904110217 | 76 | 93 | 0.0 | 0.0 | 0.00 | 0.00 | 0.00 | 85 | 1015.4 |
| 20260904105716 | 76 | 93 | 0.0 | 0.0 | 0.00 | 0.00 | 0.00 | 85 | 1015.2 |
| 20260904105215 | 76 | 93 | 0.0 | 0.0 | 0.00 | 0.00 | 0.00 | 85 | 1015.1 |
| 20260904104715 | 76 | 93 | 0.0 | 0.0 | 0.00 | 0.00 | 0.00 | 85 | 1015.0 |
| 20260904104214 | 76 | 93 | 0.0 | 0.0 | 0.00 | 0.00 | 0.00 | 84 | 1015.0 |
| 20260904103714 | 76 | 93 | 0.0 | 0.0 | 0.00 | 0.00 | 0.00 | 85 | 1014.9 |
| 20260904103213 | 76 | 93 | 0.0 | 0.0 | 0.00 | 0.00 | 0.00 | 85 | 1014.9 |
| 20260904102713 | 76 | 93 | 0.0 | 0.0 | 0.00 | 0.00 | 0.00 | 84 | 1014.9 |
| 20260904102212 | 76 | 93 | 0.0 | 0.0 | 0.00 | 0.00 | 0.00 | 84 | 1015.0 |
| 20260904101712 | 76 | 93 | 0.0 | 0.0 | 0.00 | 0.00 | 0.00 | 84 | 1015.0 |
| 20260904101210 | 76 | 93 | 0.0 | 0.0 | 0.00 | 0.00 | 0.00 | 84 | 1015.0 |
| 20260904100710 | 76 | 93 | 0.0 | 0.0 | 0.00 | 0.00 | 0.00 | 84 | 1015.0 |
| 20260904100209 | 76 | 93 | 0.0 | 0.0 | 0.00 | 0.00 | 0.00 | 84 | 1015.1 |
| 20260904095708 | 76 | 93 | 0.0 | 0.0 | 0.00 | 0.00 | 0.00 | 84 | 1015.2 |
| 20260904095207 | 77 | 93 | 0.0 | 0.0 | 0.00 | 0.00 | 0.00 | 83 | 1015.0 |
| 20260904094707 | 77 | 93 | 0.0 | 0.0 | 0.00 | 0.00 | 0.00 | 83 | 1015.1 |
| 20260904094206 | 77 | 93 | 0.0 | 0.0 | 0.00 | 0.00 | 0.00 | 83 | 1015.1 |
| 20260904093706 | 77 | 93 | 0.0 | 0.0 | 0.00 | 0.00 | 0.00 | 83 | 1015.1 |
| 20260904093205 | 77 | 93 | 0.0 | 0.0 | 0.00 | 0.00 | 0.00 | 83 | 1015.0 |
| 20260904092705 | 77 | 93 | 0.0 | 0.0 | 0.00 | 0.00 | 0.00 | 83 | 1015.0 |
| 20260904092204 | 77 | 93 | 0.0 | 0.0 | 0.00 | 0.00 | 0.00 | 83 | 1015.0 |
| 20260904091703 | 77 | 93 | 0.0 | 0.0 | 0.00 | 0.00 | 0.00 | 82 | 1015.0 |
| 20260904090702 | 77 | 93 | 0.0 | 0.0 | 0.00 | 0.00 | 0.00 | 82 | 1015.2 |
| 20260904090201 | 77 | 93 | 0.0 | 0.0 | 0.00 | 0.00 | 0.00 | 82 | 1015.2 |
| 20260904085700 | 77 | 93 | 0.0 | 0.0 | 0.00 | 0.00 | 0.00 | 82 | 1015.2 |
| 20260904085200 | 77 | 93 | 0.0 | 0.0 | 0.00 | 0.00 | 0.00 | 81 | 1015.2 |
| 20260904084659 | 77 | 93 | 0.0 | 0.0 | 0.00 | 0.00 | 0.00 | 81 | 1015.2 |
| 20260904084159 | 78 | 93 | 0.0 | 3.0 | 0.00 | 0.00 | 0.00 | 81 | 1015.2 |
| 20260904083658 | 78 | 93 | 0.0 | 3.0 | 0.00 | 0.00 | 0.00 | 81 | 1015.2 |
| 20260904083158 | 78 | 120 | 1.0 | 3.0 | 0.00 | 0.00 | 0.00 | 80 | 1015.1 |
| 20260904082657 | 78 | 158 | 1.0 | 0.0 | 0.00 | 0.00 | 0.00 | 80 | 1015.2 |
| 20260904082157 | 78 | 333 | 0.0 | 0.0 | 0.00 | 0.00 | 0.00 | 80 | 1015.2 |
| 20260904081656 | 78 | 333 | 0.0 | 0.0 | 0.00 | 0.00 | 0.00 | 79 | 1015.2 |
| 20260904081156 | 78 | 333 | 0.0 | 0.0 | 0.00 | 0.00 | 0.00 | 79 | 1015.1 |
| 20260904080655 | 78 | 333 | 0.0 | 0.0 | 0.00 | 0.00 | 0.00 | 79 | 1015.2 |
| 20260904080155 | 78 | 333 | 0.0 | 0.0 | 0.00 | 0.00 | 0.00 | 79 | 1015.2 |
| 20260904075654 | 78 | 333 | 0.0 | 0.0 | 0.00 | 0.00 | 0.00 | 79 | 1015.3 |
| 20260904075154 | 78 | 333 | 0.0 | 0.0 | 0.00 | 0.00 | 0.00 | 79 | 1015.2 |
| 20260904074653 | 78 | 333 | 0.0 | 0.0 | 0.00 | 0.00 | 0.00 | 79 | 1015.2 |
| 20260904074153 | 78 | 333 | 0.0 | 0.0 | 0.00 | 0.00 | 0.00 | 79 | 1015.2 |
| 20260904073652 | 78 | 333 | 0.0 | 0.0 | 0.00 | 0.00 | 0.00 | 79 | 1015.3 |
| 20260904073151 | 78 | 333 | 0.0 | 0.0 | 0.00 | 0.00 | 0.00 | 79 | 1015.4 |
| 20260904072651 | 78 | 333 | 0.0 | 0.0 | 0.00 | 0.00 | 0.00 | 79 | 1015.4 |
| 20260904072150 | 78 | 333 | 0.0 | 0.0 | 0.00 | 0.00 | 0.00 | 79 | 1015.4 |
| 20260904071650 | 78 | 333 | 0.0 | 0.0 | 0.00 | 0.00 | 0.00 | 79 | 1015.4 |
| 20260904071149 | 78 | 333 | 0.0 | 0.0 | 0.00 | 0.00 | 0.00 | 79 | 1015.5 |
| 20260904070649 | 78 | 333 | 0.0 | 0.0 | 0.00 | 0.00 | 0.00 | 79 | 1015.6 |
| 20260904070147 | 78 | 333 | 0.0 | 0.0 | 0.00 | 0.00 | 0.00 | 79 | 1015.7 |
| 20260904065647 | 78 | 333 | 0.0 | 0.0 | 0.00 | 0.00 | 0.00 | 79 | 1015.7 |
| 20260904065146 | 78 | 333 | 0.0 | 0.0 | 0.00 | 0.00 | 0.00 | 78 | 1015.7 |
| 20260904064646 | 78 | 333 | 0.0 | 0.0 | 0.00 | 0.00 | 0.00 | 78 | 1015.8 |
| 20260904064145 | 79 | 333 | 0.0 | 0.0 | 0.00 | 0.00 | 0.00 | 78 | 1015.8 |
| 20260904063645 | 79 | 333 | 0.0 | 0.0 | 0.00 | 0.00 | 0.00 | 78 | 1015.9 |
| 20260904063144 | 79 | 333 | 0.0 | 0.0 | 0.00 | 0.00 | 0.00 | 77 | 1015.9 |
| 20260904062644 | 79 | 333 | 0.0 | 0.0 | 0.00 | 0.00 | 0.00 | 77 | 1015.9 |
| 20260904062143 | 79 | 333 | 0.0 | 0.0 | 0.00 | 0.00 | 0.00 | 77 | 1015.9 |
| 20260904061643 | 79 | 333 | 0.0 | 0.0 | 0.00 | 0.00 | 0.00 | 77 | 1016.0 |
| 20260904061142 | 79 | 333 | 0.0 | 0.0 | 0.00 | 0.00 | 0.00 | 76 | 1016.0 |
| 20260904060642 | 79 | 333 | 0.0 | 0.0 | 0.00 | 0.00 | 0.00 | 76 | 1016.0 |
| 20260904060141 | 79 | 333 | 0.0 | 0.0 | 0.00 | 0.00 | 0.00 | 76 | 1015.9 |
| 20260904055641 | 80 | 333 | 0.0 | 0.0 | 0.00 | 0.00 | 0.00 | 75 | 1016.0 |
| 20260904055140 | 80 | 333 | 0.0 | 0.0 | 0.00 | 0.00 | 0.00 | 75 | 1016.0 |
| 20260904054639 | 80 | 333 | 0.0 | 0.0 | 0.00 | 0.00 | 0.00 | 74 | 1016.1 |
| 20260904054138 | 80 | 333 | 0.0 | 0.0 | 0.00 | 0.00 | 0.00 | 74 | 1016.0 |
| 20260904053636 | 80 | 333 | 0.0 | 2.0 | 0.00 | 0.00 | 0.00 | 73 | 1016.0 |
| 20260904053133 | 80 | 333 | 0.0 | 3.0 | 0.00 | 0.00 | 0.00 | 73 | 1016.0 |
| 20260904052632 | 81 | 62 | 2.0 | 0.0 | 0.00 | 0.00 | 0.00 | 73 | 1016.0 |
| 20260904052132 | 80 | 333 | 0.0 | 5.0 | 0.00 | 0.00 | 0.00 | 73 | 1016.1 |
| 20260904051631 | 80 | 333 | 1.0 | 4.0 | 0.00 | 0.00 | 0.00 | 73 | 1016.0 |
| 20260904051131 | 81 | 357 | 1.0 | 0.0 | 0.00 | 0.00 | 0.00 | 74 | 1016.0 |
| 20260904050630 | 81 | 180 | 0.0 | 2.0 | 0.00 | 0.00 | 0.00 | 73 | 1015.9 |
| 20260904045629 | 81 | 18 | 0.0 | 0.0 | 0.00 | 0.00 | 0.00 | 72 | 1016.0 |
| 20260904045129 | 81 | 18 | 0.0 | 0.0 | 0.00 | 0.00 | 0.00 | 72 | 1016.0 |
| 20260904044628 | 81 | 18 | 0.0 | 0.0 | 0.00 | 0.00 | 0.00 | 72 | 1016.0 |
| 20260904044128 | 81 | 18 | 0.0 | 0.0 | 0.00 | 0.00 | 0.00 | 72 | 1015.9 |
| 20260904043625 | 81 | 18 | 0.0 | 0.0 | 0.00 | 0.00 | 0.00 | 71 | 1016.0 |
| 20260904043125 | 81 | 18 | 0.0 | 0.0 | 0.00 | 0.00 | 0.00 | 72 | 1016.1 |
| 20260904042624 | 81 | 18 | 0.0 | 0.0 | 0.00 | 0.00 | 0.00 | 72 | 1016.0 |
| 20260904042124 | 81 | 18 | 0.0 | 0.0 | 0.00 | 0.00 | 0.00 | 72 | 1016.1 |
| 20260904041623 | 81 | 18 | 0.0 | 0.0 | 0.00 | 0.00 | 0.00 | 72 | 1016.0 |
| 20260904041123 | 81 | 18 | 0.0 | 1.0 | 0.00 | 0.00 | 0.00 | 72 | 1016.0 |
| 20260904040622 | 81 | 18 | 0.0 | 3.0 | 0.00 | 0.00 | 0.00 | 71 | 1016.0 |
| 20260904040122 | 81 | 18 | 1.0 | 2.0 | 0.00 | 0.00 | 0.00 | 71 | 1016.0 |
| 20260904035621 | 81 | 38 | 0.0 | 0.0 | 0.00 | 0.00 | 0.00 | 71 | 1015.8 |
| 20260904035120 | 81 | 25 | 0.0 | 0.0 | 0.00 | 0.00 | 0.00 | 71 | 1015.8 |
| 20260904034620 | 81 | 25 | 0.0 | 0.0 | 0.00 | 0.00 | 0.00 | 70 | 1015.7 |
| 20260904034119 | 81 | 25 | 0.0 | 0.0 | 0.00 | 0.00 | 0.00 | 70 | 1015.8 |
| 20260904033619 | 81 | 25 | 0.0 | 1.0 | 0.00 | 0.00 | 0.00 | 70 | 1015.7 |
| 20260904033118 | 81 | 25 | 0.0 | 1.0 | 0.00 | 0.00 | 0.00 | 70 | 1015.8 |
| 20260904032618 | 81 | 18 | 1.0 | 0.0 | 0.00 | 0.00 | 0.00 | 69 | 1015.7 |
| 20260904032117 | 82 | 7 | 0.0 | 0.0 | 0.00 | 0.00 | 0.00 | 69 | 1015.6 |
| 20260904031617 | 82 | 7 | 0.0 | 0.0 | 0.00 | 0.00 | 0.00 | 68 | 1015.7 |
| 20260904031116 | 82 | 7 | 0.0 | 0.0 | 0.00 | 0.00 | 0.00 | 68 | 1015.8 |
| 20260904030616 | 82 | 7 | 0.0 | 0.0 | 0.00 | 0.00 | 0.00 | 68 | 1015.6 |
| 20260904030115 | 82 | 7 | 0.0 | 0.0 | 0.00 | 0.00 | 0.00 | 68 | 1015.8 |
| 20260904025615 | 82 | 7 | 0.0 | 0.0 | 0.00 | 0.00 | 0.00 | 68 | 1015.8 |
| 20260904025113 | 82 | 7 | 0.0 | 0.0 | 0.00 | 0.00 | 0.00 | 68 | 1015.8 |
| 20260904024613 | 82 | 7 | 0.0 | 0.0 | 0.00 | 0.00 | 0.00 | 68 | 1015.9 |
| 20260904024112 | 82 | 7 | 0.0 | 2.0 | 0.00 | 0.00 | 0.00 | 67 | 1015.9 |
| 20260904023612 | 83 | 7 | 0.0 | 2.0 | 0.00 | 0.00 | 0.00 | 67 | 1016.0 |
| 20260904023111 | 83 | 20 | 1.0 | 2.0 | 0.00 | 0.00 | 0.00 | 67 | 1015.7 |
| 20260904022610 | 83 | 24 | 0.0 | 0.0 | 0.00 | 0.00 | 0.00 | 66 | 1015.8 |
| 20260904022110 | 83 | 24 | 0.0 | 0.0 | 0.00 | 0.00 | 0.00 | 66 | 1015.7 |
| 20260904021610 | 83 | 24 | 0.0 | 0.0 | 0.00 | 0.00 | 0.00 | 65 | 1015.6 |
| 20260904021109 | 84 | 35 | 0.0 | 0.0 | 0.00 | 0.00 | 0.00 | 65 | 1015.7 |
| 20260904020608 | 84 | 326 | 0.0 | 0.0 | 0.00 | 0.00 | 0.00 | 64 | 1015.6 |
| 20260904015607 | 84 | 326 | 0.0 | 0.0 | 0.00 | 0.00 | 0.00 | 63 | 1015.7 |
| 20260904015107 | 84 | 326 | 0.0 | 0.0 | 0.00 | 0.00 | 0.00 | 63 | 1015.7 |
| 20260904014606 | 84 | 326 | 0.0 | 0.0 | 0.00 | 0.00 | 0.00 | 63 | 1015.8 |
| 20260904014106 | 84 | 326 | 0.0 | 0.0 | 0.00 | 0.00 | 0.00 | 63 | 1015.9 |
| 20260904013605 | 85 | 326 | 0.0 | 0.0 | 0.00 | 0.00 | 0.00 | 62 | 1015.8 |
| 20260904013105 | 85 | 326 | 0.0 | 0.0 | 0.00 | 0.00 | 0.00 | 62 | 1015.7 |
| 20260904012604 | 85 | 326 | 0.0 | 0.0 | 0.00 | 0.00 | 0.00 | 62 | 1015.8 |
| 20260904012104 | 85 | 326 | 0.0 | 0.0 | 0.00 | 0.00 | 0.00 | 61 | 1015.8 |
| 20260904011603 | 85 | 326 | 0.0 | 0.0 | 0.00 | 0.00 | 0.00 | 61 | 1015.7 |
| 20260904011103 | 85 | 326 | 0.0 | 0.0 | 0.00 | 0.00 | 0.00 | 61 | 1015.8 |
| 20260904010602 | 86 | 326 | 0.0 | 0.0 | 0.00 | 0.00 | 0.00 | 61 | 1015.8 |
| 20260904005601 | 87 | 326 | 0.0 | 0.0 | 0.00 | 0.00 | 0.00 | 59 | 1015.6 |
| 20260904005100 | 87 | 326 | 0.0 | 0.0 | 0.00 | 0.00 | 0.00 | 57 | 1015.6 |
| 20260904004600 | 88 | 326 | 0.0 | 0.0 | 0.00 | 0.00 | 0.00 | 56 | 1015.6 |
| 20260904004059 | 88 | 326 | 0.0 | 0.0 | 0.00 | 0.00 | 0.00 | 55 | 1015.4 |
| 20260904003559 | 89 | 326 | 0.0 | 0.0 | 0.00 | 0.00 | 0.00 | 54 | 1015.5 |
| 20260904003058 | 89 | 326 | 0.0 | 0.0 | 0.00 | 0.00 | 0.00 | 53 | 1015.4 |
| 20260904002558 | 89 | 326 | 0.0 | 0.0 | 0.00 | 0.00 | 0.00 | 52 | 1015.4 |
| 20260904002057 | 90 | 326 | 0.0 | 1.0 | 0.00 | 0.00 | 0.00 | 51 | 1015.3 |
| 20260904001557 | 91 | 295 | 1.0 | 2.0 | 0.00 | 0.00 | 0.00 | 49 | 1015.4 |
| 20260904000055 | 91 | 228 | 2.0 | 4.0 | 0.00 | 0.00 | 0.00 | 47 | 1015.1 |
| 20260903235554 | 92 | 245 | 2.0 | 5.0 | 0.00 | 0.00 | 0.00 | 47 | 1015.2 |
| 20260903235053 | 92 | 302 | 2.0 | 7.0 | 0.00 | 0.00 | 0.00 | 47 | 1015.2 |
| 20260903234553 | 92 | 283 | 5.0 | 8.0 | 0.00 | 0.00 | 0.00 | 46 | 1015.1 |
| 20260903234053 | 92 | 263 | 4.0 | 8.0 | 0.00 | 0.00 | 0.00 | 46 | 1015.3 |
| 20260903233552 | 92 | 281 | 3.0 | 9.0 | 0.00 | 0.00 | 0.00 | 46 | 1015.2 |
| 20260903233049 | 92 | 276 | 6.0 | 11.0 | 0.00 | 0.00 | 0.00 | 46 | 1015.1 |
| 20260903232549 | 92 | 293 | 7.0 | 10.0 | 0.00 | 0.00 | 0.00 | 45 | 1015.1 |
| 20260903231548 | 92 | 257 | 5.0 | 9.0 | 0.00 | 0.00 | 0.00 | 44 | 1015.1 |
| 20260903231047 | 93 | 246 | 6.0 | 9.0 | 0.00 | 0.00 | 0.00 | 44 | 1015.0 |
| 20260903230547 | 93 | 305 | 4.0 | 8.0 | 0.00 | 0.00 | 0.00 | 44 | 1015.0 |
| 20260903230046 | 93 | 252 | 5.0 | 12.0 | 0.00 | 0.00 | 0.00 | 44 | 1014.9 |
| 20260903225545 | 93 | 280 | 6.0 | 11.0 | 0.00 | 0.00 | 0.00 | 44 | 1015.0 |
| 20260903224544 | 93 | 274 | 7.0 | 10.0 | 0.00 | 0.00 | 0.00 | 43 | 1015.0 |
| 20260903224044 | 93 | 278 | 7.0 | 13.0 | 0.00 | 0.00 | 0.00 | 43 | 1015.0 |
| 20260903223543 | 93 | 270 | 8.0 | 11.0 | 0.00 | 0.00 | 0.00 | 42 | 1014.9 |
| 20260903223043 | 93 | 315 | 5.0 | 13.0 | 0.00 | 0.00 | 0.00 | 42 | 1014.9 |
| 20260903222542 | 93 | 266 | 8.0 | 19.0 | 0.00 | 0.00 | 0.00 | 41 | 1014.9 |
| 20260903222042 | 93 | 141 | 7.0 | 15.0 | 0.00 | 0.00 | 0.00 | 42 | 1014.8 |
| 20260903221541 | 93 | 118 | 9.0 | 14.0 | 0.00 | 0.00 | 0.00 | 41 | 1014.7 |
| 20260903221041 | 93 | 242 | 7.0 | 13.0 | 0.00 | 0.00 | 0.00 | 41 | 1014.8 |
| 20260903220040 | 93 | 248 | 10.0 | 15.0 | 0.00 | 0.00 | 0.00 | 41 | 1014.5 |
| 20260903215539 | 93 | 235 | 8.0 | 14.0 | 0.00 | 0.00 | 0.00 | 41 | 1014.5 |
| 20260903215039 | 94 | 256 | 10.0 | 17.0 | 0.00 | 0.00 | 0.00 | 40 | 1014.4 |
| 20260903214538 | 94 | 243 | 7.0 | 15.0 | 0.00 | 0.00 | 0.00 | 40 | 1014.3 |
| 20260903214038 | 94 | 267 | 10.0 | 14.0 | 0.00 | 0.00 | 0.00 | 39 | 1014.3 |
| 20260903213537 | 94 | 255 | 8.0 | 13.0 | 0.00 | 0.00 | 0.00 | 40 | 1014.1 |
| 20260903213037 | 94 | 232 | 9.0 | 14.0 | 0.00 | 0.00 | 0.00 | 41 | 1014.1 |
| 20260903212536 | 94 | 263 | 7.0 | 16.0 | 0.00 | 0.00 | 0.00 | 40 | 1014.0 |
| 20260903212035 | 94 | 240 | 9.0 | 12.0 | 0.00 | 0.00 | 0.00 | 39 | 1014.1 |
| 20260903211535 | 94 | 245 | 7.0 | 14.0 | 0.00 | 0.00 | 0.00 | 40 | 1014.0 |
| 20260903211035 | 94 | 277 | 7.0 | 16.0 | 0.00 | 0.00 | 0.00 | 39 | 1014.0 |
| 20260903210534 | 94 | 260 | 11.0 | 11.0 | 0.00 | 0.00 | 0.00 | 39 | 1014.0 |
| 20260903210033 | 94 | 221 | 7.0 | 12.0 | 0.00 | 0.00 | 0.00 | 41 | 1014.0 |
| 20260903205533 | 94 | 203 | 6.0 | 14.0 | 0.00 | 0.00 | 0.00 | 40 | 1014.2 |
| 20260903205032 | 94 | 243 | 9.0 | 16.0 | 0.00 | 0.00 | 0.00 | 39 | 1014.3 |
| 20260903204531 | 94 | 242 | 8.0 | 17.0 | 0.00 | 0.00 | 0.00 | 40 | 1014.5 |
| 20260903204030 | 94 | 231 | 10.0 | 17.0 | 0.00 | 0.00 | 0.00 | 39 | 1014.5 |
| 20260903203530 | 94 | 280 | 10.0 | 16.0 | 0.00 | 0.00 | 0.00 | 39 | 1014.6 |
| 20260903203029 | 94 | 226 | 8.0 | 16.0 | 0.00 | 0.00 | 0.00 | 40 | 1014.6 |
| 20260903202529 | 93 | 243 | 12.0 | 18.0 | 0.00 | 0.00 | 0.00 | 39 | 1014.8 |
| 20260903202028 | 94 | 228 | 8.0 | 15.0 | 0.00 | 0.00 | 0.00 | 40 | 1014.9 |
| 20260903201528 | 94 | 267 | 11.0 | 15.0 | 0.00 | 0.00 | 0.00 | 39 | 1014.9 |
| 20260903201027 | 94 | 274 | 6.0 | 17.0 | 0.00 | 0.00 | 0.00 | 40 | 1015.0 |
| 20260903200527 | 94 | 267 | 10.0 | 16.0 | 0.00 | 0.00 | 0.00 | 40 | 1015.1 |
| 20260903200026 | 94 | 252 | 9.0 | 14.0 | 0.00 | 0.00 | 0.00 | 39 | 1015.2 |
| 20260903195525 | 94 | 256 | 10.0 | 15.0 | 0.00 | 0.00 | 0.00 | 39 | 1015.2 |
| 20260903195025 | 94 | 262 | 9.0 | 12.0 | 0.00 | 0.00 | 0.00 | 40 | 1015.3 |
| 20260903194524 | 93 | 269 | 9.0 | 13.0 | 0.00 | 0.00 | 0.00 | 40 | 1015.4 |
| 20260903194024 | 94 | 248 | 9.0 | 17.0 | 0.00 | 0.00 | 0.00 | 40 | 1015.5 |
| 20260903192022 | 94 | 249 | 10.0 | 14.0 | 0.00 | 0.00 | 0.00 | 39 | 1015.6 |
| 20260903191521 | 94 | 259 | 5.0 | 17.0 | 0.00 | 0.00 | 0.00 | 41 | 1015.7 |
| 20260903191021 | 93 | 264 | 11.0 | 13.0 | 0.00 | 0.00 | 0.00 | 39 | 1015.8 |
| 20260903190520 | 93 | 329 | 6.0 | 13.0 | 0.00 | 0.00 | 0.00 | 41 | 1015.8 |
| 20260903190019 | 93 | 218 | 9.0 | 14.0 | 0.00 | 0.00 | 0.00 | 41 | 1015.9 |
| 20260903185518 | 93 | 245 | 7.0 | 17.0 | 0.00 | 0.00 | 0.00 | 42 | 1015.8 |
| 20260903184517 | 93 | 294 | 12.0 | 11.0 | 0.00 | 0.00 | 0.00 | 42 | 1015.8 |
| 20260903184017 | 93 | 260 | 8.0 | 14.0 | 0.00 | 0.00 | 0.00 | 42 | 1015.9 |
| 20260903183516 | 93 | 266 | 7.0 | 14.0 | 0.00 | 0.00 | 0.00 | 44 | 1016.0 |
| 20260903183016 | 93 | 249 | 6.0 | 13.0 | 0.00 | 0.00 | 0.00 | 42 | 1016.1 |
| 20260903182515 | 93 | 281 | 7.0 | 17.0 | 0.00 | 0.00 | 0.00 | 42 | 1016.0 |
| 20260903182015 | 93 | 238 | 7.0 | 14.0 | 0.00 | 0.00 | 0.00 | 42 | 1016.1 |
| 20260903181514 | 92 | 236 | 8.0 | 17.0 | 0.00 | 0.00 | 0.00 | 43 | 1016.1 |
| 20260903181013 | 92 | 257 | 13.0 | 13.0 | 0.00 | 0.00 | 0.00 | 42 | 1016.1 |
| 20260903180513 | 92 | 255 | 5.0 | 14.0 | 0.00 | 0.00 | 0.00 | 44 | 1016.0 |
| 20260903180012 | 92 | 269 | 7.0 | 14.0 | 0.00 | 0.00 | 0.00 | 43 | 1016.2 |
| 20260903175512 | 92 | 277 | 8.0 | 15.0 | 0.00 | 0.00 | 0.00 | 43 | 1016.2 |
| 20260903175011 | 92 | 246 | 8.0 | 14.0 | 0.00 | 0.00 | 0.00 | 44 | 1016.3 |
| 20260903174511 | 92 | 231 | 8.0 | 16.0 | 0.00 | 0.00 | 0.00 | 43 | 1016.2 |
| 20260903174010 | 92 | 260 | 11.0 | 16.0 | 0.00 | 0.00 | 0.00 | 43 | 1016.4 |
| 20260903173009 | 92 | 248 | 9.0 | 17.0 | 0.00 | 0.00 | 0.00 | 44 | 1016.5 |
| 20260903172509 | 92 | 297 | 11.0 | 10.0 | 0.00 | 0.00 | 0.00 | 44 | 1016.6 |
| 20260903172008 | 92 | 264 | 5.0 | 13.0 | 0.00 | 0.00 | 0.00 | 46 | 1016.5 |
| 20260903171508 | 92 | 243 | 6.0 | 13.0 | 0.00 | 0.00 | 0.00 | 46 | 1016.6 |
| 20260903171007 | 92 | 262 | 7.0 | 12.0 | 0.00 | 0.00 | 0.00 | 45 | 1016.5 |
| 20260903170507 | 92 | 284 | 4.0 | 15.0 | 0.00 | 0.00 | 0.00 | 45 | 1016.6 |
| 20260903170006 | 91 | 215 | 8.0 | 17.0 | 0.00 | 0.00 | 0.00 | 46 | 1016.8 |
| 20260903165005 | 91 | 250 | 9.0 | 13.0 | 0.00 | 0.00 | 0.00 | 47 | 1016.8 |
| 20260903164505 | 91 | 226 | 9.0 | 12.0 | 0.00 | 0.00 | 0.00 | 46 | 1016.9 |
| 20260903164004 | 91 | 204 | 8.0 | 13.0 | 0.00 | 0.00 | 0.00 | 47 | 1017.0 |
| 20260903163504 | 91 | 287 | 8.0 | 10.0 | 0.00 | 0.00 | 0.00 | 49 | 1017.0 |
| 20260903163003 | 90 | 271 | 6.0 | 11.0 | 0.00 | 0.00 | 0.00 | 48 | 1016.9 |
| 20260903162502 | 90 | 298 | 7.0 | 13.0 | 0.00 | 0.00 | 0.00 | 48 | 1017.0 |
| 20260903162002 | 90 | 205 | 9.0 | 10.0 | 0.00 | 0.00 | 0.00 | 50 | 1017.0 |
| 20260903161001 | 90 | 246 | 8.0 | 10.0 | 0.00 | 0.00 | 0.00 | 50 | 1017.2 |
| 20260903160500 | 90 | 214 | 4.0 | 11.0 | 0.00 | 0.00 | 0.00 | 52 | 1017.1 |
| 20260903160000 | 90 | 180 | 3.0 | 7.0 | 0.00 | 0.00 | 0.00 | 53 | 1017.1 |
| 20260903155459 | 89 | 267 | 5.0 | 10.0 | 0.00 | 0.00 | 0.00 | 53 | 1017.2 |
| 20260903154959 | 89 | 263 | 7.0 | 9.0 | 0.00 | 0.00 | 0.00 | 53 | 1017.2 |
| 20260903153958 | 89 | 269 | 4.0 | 9.0 | 0.00 | 0.00 | 0.00 | 54 | 1017.2 |
| 20260903153457 | 88 | 218 | 7.0 | 10.0 | 0.00 | 0.00 | 0.00 | 54 | 1017.2 |
| 20260903152957 | 88 | 203 | 5.0 | 9.0 | 0.00 | 0.00 | 0.00 | 55 | 1017.2 |
| 20260903152456 | 88 | 225 | 6.0 | 11.0 | 0.00 | 0.00 | 0.00 | 55 | 1017.2 |
| 20260903151956 | 88 | 243 | 4.0 | 8.0 | 0.00 | 0.00 | 0.00 | 56 | 1017.3 |
| 20260903151455 | 88 | 255 | 3.0 | 10.0 | 0.00 | 0.00 | 0.00 | 56 | 1017.3 |
| 20260903150955 | 87 | 277 | 6.0 | 8.0 | 0.00 | 0.00 | 0.00 | 55 | 1017.2 |
| 20260903150454 | 87 | 269 | 2.0 | 10.0 | 0.00 | 0.00 | 0.00 | 57 | 1017.1 |
| 20260903145954 | 87 | 242 | 4.0 | 9.0 | 0.00 | 0.00 | 0.00 | 57 | 1017.2 |
| 20260903145453 | 86 | 267 | 6.0 | 8.0 | 0.00 | 0.00 | 0.00 | 57 | 1017.1 |
| 20260903144953 | 86 | 219 | 6.0 | 9.0 | 0.00 | 0.00 | 0.00 | 59 | 1017.0 |
| 20260903143450 | 85 | 210 | 8.0 | 10.0 | 0.00 | 0.00 | 0.00 | 60 | 1017.2 |
| 20260903142950 | 85 | 219 | 6.0 | 9.0 | 0.00 | 0.00 | 0.00 | 60 | 1017.1 |
| 20260903142449 | 85 | 252 | 6.0 | 9.0 | 0.00 | 0.00 | 0.00 | 60 | 1017.2 |
| 20260903141948 | 84 | 269 | 5.0 | 9.0 | 0.00 | 0.00 | 0.00 | 61 | 1017.1 |
| 20260903141448 | 84 | 253 | 6.0 | 9.0 | 0.00 | 0.00 | 0.00 | 61 | 1017.2 |
| 20260903140947 | 84 | 204 | 7.0 | 7.0 | 0.00 | 0.00 | 0.00 | 61 | 1017.1 |
| 20260903140447 | 84 | 200 | 2.0 | 7.0 | 0.00 | 0.00 | 0.00 | 62 | 1017.1 |
| 20260903135945 | 84 | 253 | 5.0 | 8.0 | 0.00 | 0.00 | 0.00 | 63 | 1017.1 |
| 20260903135445 | 84 | 277 | 4.0 | 7.0 | 0.00 | 0.00 | 0.00 | 63 | 1017.2 |
| 20260903134944 | 83 | 243 | 4.0 | 6.0 | 0.00 | 0.00 | 0.00 | 63 | 1017.3 |
| 20260903134444 | 83 | 267 | 3.0 | 5.0 | 0.00 | 0.00 | 0.00 | 64 | 1017.3 |
| 20260903133943 | 83 | 271 | 3.0 | 8.0 | 0.00 | 0.00 | 0.00 | 64 | 1017.3 |
| 20260903133442 | 83 | 243 | 5.0 | 6.0 | 0.00 | 0.00 | 0.00 | 63 | 1017.3 |
| 20260903132940 | 82 | 243 | 3.0 | 6.0 | 0.00 | 0.00 | 0.00 | 66 | 1017.4 |
| 20260903131939 | 82 | 231 | 3.0 | 9.0 | 0.00 | 0.00 | 0.00 | 65 | 1017.5 |